Location: Newark
(51.8900°N, 2.0780°W)
Time: 23:21:43
(UTC+00:00)

Envisat - Visible Passes

Search period start: 22 November 2019 00:00
Search period end: 02 December 2019 00:00
Orbit: 764 x 766 km, 98.1° (Epoch: 22 November)

Date Brightness Start Highest point End Pass type
(mag) Time Alt. Az. Time Alt. Az. Time Alt. Az.
22 Nov 5.9 05:49:24 10° NE 05:52:52 18° E 05:56:19 10° SE visible
22 Nov 3.4 17:08:55 10° SE 17:13:39 41° ENE 17:18:24 10° N visible
22 Nov 4.6 18:48:08 10° SSW 18:52:45 35° W 18:57:25 10° NNW visible
23 Nov 3.9 06:50:40 10° NNE 06:55:41 55° E 07:00:40 10° S visible
23 Nov 3.3 18:10:44 10° S 18:15:48 68° WSW 18:20:54 10° NNW visible
23 Nov 6.2 19:54:25 10° W 19:55:49 11° W 19:57:13 10° WNW visible
24 Nov 5.2 06:14:15 10° NNE 06:18:40 29° E 06:23:03 10° SSE visible
24 Nov 3.0 17:34:01 10° SSE 17:39:01 64° ENE 17:44:04 10° N visible
24 Nov 5.4 19:14:35 10° SW 19:18:30 22° W 19:22:27 10° NW visible
25 Nov 6.0 05:38:35 10° NE 05:41:26 15° E 05:44:17 10° ESE visible
25 Nov 3.6 16:57:54 10° SE 17:02:27 34° ENE 17:07:01 10° N visible
25 Nov 4.2 18:36:36 10° SSW 18:41:24 42° W 18:46:15 10° NNW visible
26 Nov 4.3 06:39:27 10° NNE 06:44:21 45° E 06:49:13 10° S visible
26 Nov 3.0 17:59:24 10° SSE 18:04:30 82° WSW 18:09:38 10° NNW visible
26 Nov 6.0 19:41:48 10° WSW 19:44:21 14° W 19:46:55 10° NW visible
27 Nov 5.5 06:03:11 10° NE 06:07:16 24° E 06:11:20 10° SE visible
27 Nov 3.1 17:22:52 10° SE 17:27:47 53° ENE 17:32:44 10° N visible
27 Nov 5.1 19:02:51 10° SSW 19:07:06 27° W 19:11:24 10° NW visible
28 Nov 6.2 05:28:02 10° ENE 05:29:59 12° E 05:31:56 10° ESE visible
28 Nov 3.4 07:04:50 10° NNE 07:09:57 73° ESE 07:15:01 10° S visible
28 Nov 3.8 16:46:57 10° ESE 16:51:16 29° ENE 16:55:36 10° N visible
28 Nov 3.8 18:25:08 10° S 18:30:04 51° W 18:35:03 10° NNW visible
29 Nov 4.7 06:28:16 10° NNE 06:33:01 37° E 06:37:42 10° SSE visible
29 Nov 2.9 17:48:08 10° SSE 17:53:13 83° ENE 17:58:21 10° NNW visible
29 Nov 5.7 19:29:40 10° SW 19:32:55 17° W 19:36:11 10° NW visible
30 Nov 5.8 05:52:12 10° NE 05:55:52 20° E 05:59:31 10° SE visible
30 Nov 3.3 17:11:46 10° SE 17:16:34 44° ENE 17:21:23 10° N visible
30 Nov 4.7 18:51:12 10° SSW 18:55:44 32° W 19:00:18 10° NNW visible
01 Dec 3.7 06:53:35 10° NNE 06:58:38 60° E 07:03:39 10° S visible
01 Dec 4.0 16:36:02 10° ESE 16:40:06 25° ENE 16:44:09 10° N visible
01 Dec 3.4 18:13:43 10° S 18:18:45 63° WSW 18:23:49 10° NNW visible
01 Dec 6.3 19:58:34 10° W 19:58:50 10° W 19:59:06 10° WNW visible
